Погода Мыс Биллингс

Погода Мыс Биллингс : погода сейчас, прогноз погоды и архив. Всё, что Вы хотите узнать о погоде Мыс Биллингс!

Поиск расширенной информации на нашем сайте:

Другие новости

Новости СМИ2

Главная страница сайта

Новости сайта

03.07.2017

Напоминаем, что на нашем специализированном сайте Метеоцентр.Азия вы можете получить высокодетализированные автоматические прогнозы погоды по пунктам России, СНГ и мира в авиационном формате (включающие направление и скорость ветра, видимость, явления погоды, количество и форму облачности, нижнюю и верхнюю границу облачности).


Погода Мыс Биллингс - сегодня

Время (UTC), дата Ветер
(°,м/с) 
Видим.   Явления Облачность Т
(°С)
Тd
(°С)
f(%) Тe
(°С)
Pmin
(гПа)
dP
(гПа)
Po
(мм)
O2
(г/м3)
Тmin Tmax R s Состояние
почвы
15 15.02.18 190 (Ю) 1{03}  20000 м    10/10 600 м 
[Sc]
-11.2 -13.2 85 -11  1006.1  2.5  754  318           
18 15.02.18 290 (З) 4{06}  20000 м    8/8 600 м 
[Sc]
-18.3 -20.2 85 -24  1008.8  2.7  756  328  -18.3      28  неравномерный
сухой снег
100% 
21 15.02.18 290 (З) 3{05}  20000 м    3/3 600 м 
[Sc]
-17.9 -19.1 90 -22  1012.2  3.4  759  329           
00 16.02.18 300 (СЗ) 2{04}  20000 м    ясно 
-17.3 -18.5 90 -20  1013.4  1.2  760  328           
03 16.02.18 270 (З) 1{03}  20000 м    4/4 600 м средняя 
[Sc|Ac lent]
-21 -22.8 85 -21  1015  1.6  761  334           
09 16.02.18 320 (СЗ) 2{04}  20000 м    8/8 600 м 
[Sc]
-17.9 -19.1 90 -20  1014.6  -0.6  761  330           
12 16.02.18 050 (СВ) 3{05}  20000 м    10/10 600 м 
[Sc]
-17.4 -18.6 90 -21  1013.5  -1.1  760  329           
15 16.02.18 050 (СВ) 3{04}  20000 м    10/10 600 м 
[Sc]
-12.1 -13.4 90 -15  1011.9  -0.6  759  321           
18 16.02.18 080 (В) 8-10{10}  20000 м  позёмок  10/10 600 м 
[Sc]
-8.6 -9.7 92 -15  1010.4  -1.5  758  316  -18.1      28  неравномерный
сухой снег
100% 
03 17.02.18 140 (ЮВ) 2{04}  20000 м    10/10 600 м 
[Sc]
-5.8 -6.9 92 -7  1007.6  -0.4  755  312           
09 17.02.18 200 (Ю) 2{04}  20000 м    6/6 600 м 
[Sc]
-10.5 -11.8 90 -12  1007.1  0.9  755  318           
12 17.02.18 270 (З) 3{05}  20000 м    4/4 600 м 
[Sc]
-12.5 -13.1 95 -16  1007.9  0.8  756  320           
15 17.02.18 220 (ЮЗ) 2{04}  20000 м    6/6 600 м средняя 
[Sc|Ac As]
-15.6 -16.9 90 -18  1009.7  1.8  757  325           
18 17.02.18 230 (ЮЗ) 1{03}  20000 м    9/9 600 м 
[Sc]
-16.4 -17.7 90 -17  1011.8  2.1  759  327  -16.4      30  неравномерный
сухой снег
100% 
21 17.02.18 тихо () {02}  20000 м    4/0 средняя, верхняя 
[Ac trans|Ci sp]
-17.6 -18.8 90 -18  1014.5  2.7  761  329           
03 18.02.18 100 (В) 2{04}  20000 м    9/0 средняя 
[Ac trans]
-14.3 -15.6 90 -16  1014  -1.6  760  325           
09 18.02.18 100 (В) 3{05}  20000 м    10/0 средняя 
[Ac As]
-7.2 -8.5 90 -10  1008.2  -3.4  756  314           
15 18.02.18 090 (В) 7{09}  20000 м  позёмок  10/0 средняя 
[Ac As]
-3.9 -5.1 91 -9  1000.6  -3.6  750  307           
18 18.02.18 080 (В) 6{08}  20000 м  позёмок  10/0 средняя 
[Ac As]
-3.3 -4.7 90 -7  997.7  -2.9  748  306  -10.6      29  неравномерный
сухой снег
100% 
21 18.02.18 230 (ЮЗ) 6{08}  4000 м  слаб. снег  10/0 средняя 
[As op]
-9.8 -10.6 94 -15  995.4  -2.3  746  313           
06 19.02.18 220 (ЮЗ) 10-12{12}  1000 м  метель{снег}  10/0 средняя 
[Ac As]
-13.2 -13.8 95 -21  996.9  1.4  747  318    -3.3  0.9     
15 19.02.18 190 (Ю) 3{05}  10 км    ясно 
-15.1 -17 85 -19  1003.4  0.2  752  322           
18 19.02.18 050 (СВ) 3{05}  10 км    10/0 средняя 
[Ac As]
-13 -14.3 90 -16  1001.9  -1.5  751  319  -15.1      27  неравномерный
сухой снег
100% 
21 19.02.18 020 (С) 6{08}  10 км  позёмок  10/0 средняя 
[Ac As]
-13.2 -14.5 90 -19  998.6  -3.3  749  318           
06 20.02.18 280 (З) 8-10{10}  2000 м  снег  10/0 средняя 
[As op]
-17.4 -18.6 90 -25  992.5  -0.7  744  322    -13     
Время (UTC), дата Ветер
(°,м/с) 
Видим.   Явления Облачность Т
(°С)
Тd
(°С)
f(%) Тe
(°С)
Pmin
(гПа)
dP
(гПа)
Po
(мм)
O2
(г/м3)
Тmin Tmax R s Состояние
почвы

Для получения пояснительной информации подведите курсор к названию столбца.

ПОГОДА Мыс Биллингс - архив

Всё, что Вы хотите узнать о погоде Мыс Биллингс - удобно и подробно!

Выберите нужную дату (начиная с 1 января 2015* года) и нажмите кнопку "Найти".
Будут отображены архивные сводки погоды по пункту Мыс Биллингс, начиная с указанной даты.


Отображать данные в формате CSV (для использования в таблицах Excel)


Внимание! Наш архив погоды предназначен исключительно для личного некоммерческого использования в познавательных целях. Если Вам необходимы официальные справки о состоянии погоды (для производственных, юридических, коммерческих и т.п. целей), обращайтесь в органы Росгидромета.

*Примечание: данная дата относится к архиву по метеостанциям СССР (Россия, СНГ, Балтия).
Архив по метеостанциям Зарубежной Европы и Азии (кроме Китая) хранится 10 дней, по другим регионам земного шара (Китай, Африка, Америка, Австралия, Океания) - 1 день.

Мыс Биллингс - район местоположения метеостанции


Название, широта, долгота, высота метеостанции:
Мыс Биллингс 69.88°ш. 175.76°д. 3 м над ур. моря [Российская Федерация]

Дополнительная информация

В oтличие oт бoльшинства пoгoдных сайтoв мы публикуем пoдрoбную метеoинфoрмацию в детальнoм прoфессиoнальнoм фoрмате.

Характеристики температуры и влажнoсти вoздуха измеряются на высoте 2 м в тени вдали oт зданий и деревьев.
Скoрoсть ветра измеряется на высoте 10 м (на урoвне рoста челoвека скoрoсть ветра ниже в 1.5-2 раза). Если метеoстанция нахoдится в гoрoде или в лесу, тo скoрoсть ветра занижена на 2-4 м/с пo сравнению с oткрытым местoм. Скoрoсть ветра над акватoриями крупных рек и oзёр, а также на вершинах хoлмoв на 2-5 м/с выше, чем в oбычных услoвиях.
Атмoсфернoе давление в разных тoчках местнoсти мoжет значительнo oтличаться oт давления на метеoстанции, в зависимoсти oт услoвий рельефа (при пoдъёме на 10 м давление пoнижается примернo на 1 мм рт.ст.).